Hourly Weather Godzieba

Today, 13 May, Thursday

Time Temperature Precipitation Wind Pressure Humidity
00:00 +14°C° 0 mm 5 mps 746 mmHg 85%
01:00 +13°C° 0 mm 4 mps 746 mmHg 86%
02:00 +12°C° 0 mm 4 mps 746 mmHg 86%
03:00 +12°C° 0 mm 4 mps 745 mmHg 85%
04:00 +11°C° 0 mm 4 mps 745 mmHg 85%
05:00 +12°C° 0 mm 4 mps 745 mmHg 81%
06:00 +13°C° 0 mm 4 mps 745 mmHg 78%
07:00 +13°C° 0 mm 4 mps 745 mmHg 74%
08:00 +15°C° 0 mm 4 mps 744 mmHg 68%
09:00 +17°C° 0 mm 4 mps 744 mmHg 62%
10:00 +18°C° 0 mm 4 mps 744 mmHg 56%
11:00 +19°C° 0 mm 4 mps 744 mmHg 53%
12:00 +19°C° 0 mm 4 mps 743 mmHg 51%
13:00 +20°C° 0 mm 4 mps 743 mmHg 49%
14:00 +20°C° 0 mm 4 mps 743 mmHg 49%
15:00 +20°C° 0 mm 3 mps 742 mmHg 50%
16:00 +20°C° 0 mm 3 mps 742 mmHg 51%
17:00 +18°C° 0 mm 3 mps 742 mmHg 59%
18:00 +17°C° 0 mm 2 mps 742 mmHg 66%
19:00 +16°C° 0 mm 2 mps 742 mmHg 74%
20:00 +15°C° 0 mm 2 mps 742 mmHg 76%
21:00 +14°C° 0 mm 2 mps 742 mmHg 79%
22:00 +14°C° 0 mm 1 mps 742 mmHg 81%
23:00 +14°C° 0 mm 1 mps 742 mmHg 83%

Tomorrow, 14 May, Friday

Time Temperature Precipitation Wind Pressure Humidity
00:00 +13°C° 0 mm 1 mps 742 mmHg 84%
01:00 +13°C° 0 mm 1 mps 742 mmHg 85%
02:00 +13°C° 0.1 mm 2 mps 742 mmHg 88%
03:00 +12°C° 0.1 mm 2 mps 742 mmHg 91%
04:00 +10°C° 0.1 mm 2 mps 742 mmHg 94%
05:00 +12°C° 0.1 mm 2 mps 742 mmHg 90%
06:00 +12°C° 0.1 mm 1 mps 743 mmHg 87%
07:00 +12°C° 0.1 mm 1 mps 743 mmHg 83%
08:00 +14°C° 0 mm 2 mps 743 mmHg 79%
09:00 +15°C° 0 mm 2 mps 743 mmHg 76%
10:00 +16°C° 0 mm 2 mps 743 mmHg 72%
11:00 +16°C° 0.4 mm 3 mps 744 mmHg 73%
12:00 +15°C° 0.4 mm 4 mps 744 mmHg 74%
13:00 +17°C° 0.4 mm 4 mps 744 mmHg 76%
14:00 +15°C° 0.6 mm 5 mps 744 mmHg 79%
15:00 +15°C° 0.6 mm 5 mps 744 mmHg 81%
16:00 +14°C° 0.6 mm 5 mps 745 mmHg 84%
17:00 +13°C° 0.1 mm 5 mps 745 mmHg 86%
18:00 +12°C° 0.1 mm 5 mps 745 mmHg 88%
19:00 +10°C° 0.1 mm 5 mps 746 mmHg 90%
20:00 +11°C° 0 mm 4 mps 746 mmHg 91%
21:00 +11°C° 0 mm 4 mps 746 mmHg 91%
22:00 +10°C° 0 mm 4 mps 746 mmHg 92%
23:00 +10°C° 0 mm 4 mps 747 mmHg 92%

Day after tomorrow, 15 May, Saturday

Time Temperature Precipitation Wind Pressure Humidity
00:00 +10°C° 0 mm 3 mps 747 mmHg 92%
01:00 +10°C° 0 mm 3 mps 747 mmHg 92%
02:00 +10°C° 0 mm 3 mps 747 mmHg 91%
03:00 +10°C° 0 mm 3 mps 747 mmHg 91%
04:00 +10°C° 0 mm 3 mps 747 mmHg 91%
05:00 +10°C° 0 mm 3 mps 748 mmHg 88%
06:00 +10°C° 0 mm 3 mps 748 mmHg 85%
07:00 +11°C° 0 mm 3 mps 748 mmHg 82%
08:00 +12°C° 0 mm 4 mps 748 mmHg 74%
09:00 +14°C° 0 mm 4 mps 748 mmHg 66%
10:00 +15°C° 0 mm 4 mps 749 mmHg 58%
11:00 +17°C° 0 mm 4 mps 749 mmHg 55%
12:00 +18°C° 0 mm 3 mps 748 mmHg 53%
13:00 +18°C° 0 mm 2 mps 748 mmHg 51%
14:00 +18°C° 0 mm 2 mps 748 mmHg 53%
15:00 +18°C° 0 mm 2 mps 748 mmHg 55%
16:00 +18°C° 0 mm 2 mps 748 mmHg 58%
17:00 +17°C° 0 mm 2 mps 748 mmHg 64%
18:00 +16°C° 0 mm 2 mps 748 mmHg 70%
19:00 +15°C° 0 mm 2 mps 747 mmHg 77%
20:00 +14°C° 0.1 mm 2 mps 747 mmHg 79%
21:00 +13°C° 0.1 mm 2 mps 747 mmHg 82%
22:00 +12°C° 0.1 mm 3 mps 747 mmHg 84%
23:00 +12°C° 0.5 mm 3 mps 747 mmHg 87%

16 May, Sunday

Time Temperature Precipitation Wind Pressure Humidity
00:00 +11°C° 0.5 mm 3 mps 747 mmHg 90%
01:00 +12°C° 0.5 mm 2 mps 747 mmHg 94%
02:00 +12°C° 0.9 mm 2 mps 747 mmHg 94%
03:00 +12°C° 0.9 mm 2 mps 747 mmHg 94%
04:00 +12°C° 0.9 mm 2 mps 746 mmHg 95%
05:00 +12°C° 0.2 mm 3 mps 746 mmHg 93%
06:00 +12°C° 0.2 mm 3 mps 747 mmHg 92%
07:00 +13°C° 0.2 mm 3 mps 747 mmHg 90%
08:00 +15°C° 0.3 mm 2 mps 747 mmHg 87%
09:00 +15°C° 0.3 mm 2 mps 746 mmHg 83%
10:00 +16°C° 0.3 mm 2 mps 746 mmHg 79%
11:00 +16°C° 1.1 mm 2 mps 746 mmHg 83%
12:00 +15°C° 1.1 mm 2 mps 746 mmHg 87%
13:00 +14°C° 1.1 mm 2 mps 746 mmHg 90%
14:00 +14°C° 0.7 mm 2 mps 746 mmHg 91%
15:00 +13°C° 0.7 mm 2 mps 746 mmHg 91%
16:00 +13°C° 0.7 mm 2 mps 746 mmHg 92%
17:00 +13°C° 0 mm 2 mps 746 mmHg 92%
18:00 +13°C° 0 mm 1 mps 745 mmHg 91%
19:00 +12°C° 0 mm 1 mps 745 mmHg 91%
20:00 +12°C° 0 mm 1 mps 745 mmHg 91%
21:00 +11°C° 0 mm 1 mps 745 mmHg 92%
22:00 +11°C° 0 mm 1 mps 745 mmHg 92%
23:00 +11°C° 0 mm 1 mps 746 mmHg 92%

17 May, Monday

Time Temperature Precipitation Wind Pressure Humidity
00:00 +11°C° 0 mm 1 mps 746 mmHg 92%
01:00 +11°C° 0 mm 1 mps 746 mmHg 92%
02:00 +10°C° 0 mm 1 mps 745 mmHg 92%
03:00 +10°C° 0 mm 1 mps 745 mmHg 93%
04:00 +10°C° 0 mm 1 mps 745 mmHg 93%
05:00 +11°C° 0 mm 1 mps 746 mmHg 90%
06:00 +12°C° 0 mm 1 mps 746 mmHg 86%
07:00 +13°C° 0 mm 1 mps 746 mmHg 83%
08:00 +14°C° 0.3 mm 2 mps 746 mmHg 77%
09:00 +16°C° 0.3 mm 2 mps 746 mmHg 71%
10:00 +17°C° 0.3 mm 2 mps 745 mmHg 66%
11:00 +18°C° 0.4 mm 3 mps 745 mmHg 64%
12:00 +18°C° 0.4 mm 3 mps 745 mmHg 62%
13:00 +18°C° 0.4 mm 3 mps 745 mmHg 61%
14:00 +18°C° 0.2 mm 3 mps 745 mmHg 60%
15:00 +18°C° 0.2 mm 3 mps 745 mmHg 60%
16:00 +18°C° 0.2 mm 3 mps 745 mmHg 59%
17:00 +17°C° 0.1 mm 3 mps 745 mmHg 68%
18:00 +16°C° 0.1 mm 3 mps 745 mmHg 76%
19:00 +14°C° 0.1 mm 2 mps 745 mmHg 84%
20:00 +13°C° 0 mm 2 mps 745 mmHg 87%
21:00 +12°C° 0 mm 2 mps 745 mmHg 90%
22:00 +10°C° 0 mm 2 mps 745 mmHg 92%
23:00 +10°C° 0 mm 2 mps 745 mmHg 93%

18 May, Tuesday

Time Temperature Precipitation Wind Pressure Humidity
00:00 +9°C° 0 mm 2 mps 746 mmHg 93%
01:00 +9°C° 0 mm 2 mps 746 mmHg 93%
02:00 +9°C° 0 mm 2 mps 746 mmHg 93%
03:00 +8°C° 0 mm 2 mps 745 mmHg 93%
04:00 +8°C° 0 mm 2 mps 745 mmHg 93%
05:00 +9°C° 0 mm 2 mps 746 mmHg 90%
06:00 +10°C° 0 mm 2 mps 746 mmHg 87%
07:00 +12°C° 0 mm 2 mps 746 mmHg 84%
08:00 +13°C° 0 mm 2 mps 746 mmHg 81%
09:00 +14°C° 0 mm 2 mps 746 mmHg 78%
10:00 +15°C° 0 mm 2 mps 747 mmHg 74%
11:00 +15°C° 0.4 mm 2 mps 747 mmHg 76%
12:00 +15°C° 0.4 mm 2 mps 747 mmHg 77%
13:00 +14°C° 0.4 mm 3 mps 747 mmHg 78%
14:00 +13°C° 1 mm 3 mps 747 mmHg 83%
15:00 +12°C° 1 mm 3 mps 747 mmHg 87%
16:00 +11°C° 1 mm 3 mps 747 mmHg 92%
17:00 +11°C° 1.3 mm 3 mps 747 mmHg 92%
18:00 +11°C° 1.3 mm 3 mps 747 mmHg 93%
19:00 +10°C° 1.3 mm 3 mps 747 mmHg 94%
20:00 +10°C° 1.3 mm 3 mps 747 mmHg 95%
21:00 +10°C° 1.3 mm 4 mps 747 mmHg 95%
22:00 +10°C° 1.3 mm 4 mps 747 mmHg 96%
23:00 +9°C° 0.6 mm 5 mps 747 mmHg 95%
Show more